Retour au catalogue

COSMOS 1579 COOLANT

ActifLEO
NORAD 26517·DEBRIS·🇷🇺 Russia

Lancé Jun 29, 1984 depuis Baikonur Cosmodrome

Loading…

Prochains Passages (prochaines 24 heures)

TLE

PériméSource: Space-Track

Époque: Sep 4, 2026, 05:39 UTC

1 26517U 84069J   26247.23606411  .00000005  00000-0  74294-4 0  9997
2 26517  65.0498  56.1010 0052041 323.4298 212.1018 13.91246586666346

Suivez COSMOS 1579 COOLANT en temps réel avec AllMySat

Download on the App Store